TimeEET,TemperatureF,Dew PointF,Humidity,Sea Level PressureIn,VisibilityMPH,Wind Direction,Wind SpeedMPH,Gust SpeedMPH,PrecipitationIn,Events,Conditions,WindDirDegrees,DateUTC
12:00 AM,71.6,51.8,50,29.92,-9999.0,NNW,6.9,-,N/A,,Clear,340,2012-10-31 22:00:00
1:00 AM,69.8,53.6,56,29.92,-9999.0,NNW,5.8,-,N/A,,Clear,330,2012-10-31 23:00:00
2:00 AM,65,52,52,29.92,6,West,8.1,,,,,280,2012-11-01 00:00:00
2:00 AM,64.4,51.8,64,29.92,-9999.0,West,8.1,-,N/A,,Clear,280,2012-11-01 00:00:00
3:00 AM,64.4,51.8,64,29.92,-9999.0,WNW,6.9,-,N/A,,Clear,290,2012-11-01 01:00:00
4:00 AM,62.6,53.6,72,29.92,-9999.0,WNW,5.8,-,N/A,,Clear,300,2012-11-01 02:00:00
5:00 AM,60.8,51.8,72,29.95,-9999.0,SW,4.6,-,N/A,,Clear,230,2012-11-01 03:00:00
6:00 AM,60.8,51.8,72,29.95,-9999.0,WSW,3.5,-,N/A,,Clear,240,2012-11-01 04:00:00
7:00 AM,59.0,51.8,77,29.98,-9999.0,WSW,3.5,-,N/A,,Clear,240,2012-11-01 05:00:00
8:00 AM,63,54,63,29.98,6,WSW,5.8,,,,,240,2012-11-01 06:00:00
8:00 AM,62.6,53.6,72,29.98,-9999.0,WSW,5.8,-,N/A,,Clear,240,2012-11-01 06:00:00
9:00 AM,68.0,51.8,56,29.98,-9999.0,West,4.6,-,N/A,,Clear,270,2012-11-01 07:00:00
10:00 AM,71.6,51.8,50,29.98,-9999.0,WNW,3.5,-,N/A,,Clear,300,2012-11-01 08:00:00
11:00 AM,80.6,57.2,45,29.98,-9999.0,WNW,6.9,-,N/A,,Clear,300,2012-11-01 09:00:00
12:00 PM,86.0,57.2,37,29.95,-9999.0,WNW,9.2,-,N/A,,Clear,300,2012-11-01 10:00:00
1:00 PM,87.8,57.2,35,29.92,-9999.0,NW,8.1,-,N/A,,Clear,310,2012-11-01 11:00:00
2:00 PM,94,56,19,29.85,6,NW,9.2,,,,,320,2012-11-01 12:00:00
3:00 PM,95.0,55.4,26,29.89,-9999.0,WNW,6.9,-,N/A,,Clear,290,2012-11-01 13:00:00
4:00 PM,93.2,55.4,28,29.89,-9999.0,SE,4.6,-,N/A,,Clear,140,2012-11-01 14:00:00
8:00 PM,79,52,29,29.90,6,WNW,8.1,,,,Clear,300,2012-11-01 18:00:00
8:00 PM,78.8,51.8,39,29.92,-9999.0,WNW,8.1,-,N/A,,Clear,300,2012-11-01 18:00:00
9:00 PM,78.8,51.8,39,29.95,-9999.0,WNW,6.9,-,N/A,,Clear,300,2012-11-01 19:00:00
10:00 PM,77.0,51.8,41,29.95,-9999.0,WNW,5.8,-,N/A,,Clear,290,2012-11-01 20:00:00
11:00 PM,75.2,57.2,53,29.95,-9999.0,WNW,5.8,-,N/A,,Clear,300,2012-11-01 21:00:00